VNREDSAT 1

Last updated on Thu Oct 30 2025 00:02:31 GMT+0000 (Coordinated Universal Time)

1 39160U 13021B 25302.49566064 .00000903 00000+0 17771-3 0 9995 2 39160 97.9436 359.3091 0001559 96.7847 263.3534 14.64818828666510
UTC large
Height (km)
Speed (km/s)
/
Latitude / Longitude
Inclination (degrees)
Orbital Period (minutes)
Azimuth
Elevation
Range (km)
Doppler Factor

Next 0 passes for location: London (51.5072 / 0.1276)

Sorry there are no passes over London.